www.pogodaiklimat.ru

Погода и климат >> Архив погоды >> Киргизия >> Токтогул


ПОГОДА в Токтогуле

  • Прогноз погоды в Токтогуле
  • Монитор погоды в Токтогуле

АРХИВ ПОГОДЫ в Токтогуле

Время (UTC), дата Ветер
(напр.,м/с)
 
Видим.   Явления Облачность Т
(С)
Тd
(С)
f
(%)
Тe
(С)
Тes
(С)
Комфортность P
(гПа)
Po
(гПа)
Тmin
(С)
Tmax
(С)
R
(мм)
R24
(мм)
S
(см)
18 11.09 штиль 0 10 км ясно +11.2 +4.6 64 +11 +11 1023.2 898.4 +21.8
03 12.09 штиль 0 50 км ясно +14.5 +2.1 43 +14 +19 1022.0 898.7
06 12.09 ЮЗ 2 50 км ясно +17.9 +2.1 35 +18 +30 опасность
простуды
1019.8 898.1 +7.0
09 12.09 штиль 0 50 км ясно +21.6 +1.5 26 +21 +35 комфорт 1015.6 895.9
12 12.09 штиль 0 50 км 1/0
[Ci]
+22.6 +5.5 33 +23 +25 комфорт 1013.5 906.2
15 12.09 штиль 0 10 км 3/0
[Ac As Ci fib]
+13.3 +6.7 64 +13 +13 1017.8 894.5 +23.0
18 12.09 штиль 0 10 км 3/0
[Ac As]
+11.3 +4.5 63 +11 +11 1019.0 894.8 +23.0
21 12.09 штиль 0 10 км ясно +11.1 0.0 46 +11 +11 1019.2 894.9
00 13.09 штиль 0 4000 м ясно +10.0 +2.9 61 +10 +10 1019.8 907.2
03 13.09 штиль 0 50 км 1/0
[Ci fib]
+15.6 +5.8 52 +16 +20 1018.9 896.4
06 13.09 ЮЗ 2 50 км 3/0
[Ci fib]
+19.0 +8.4 50 +20 +31 1016.8 895.9 +9.0
09 13.09 штиль 0 50 км 5/0
[Ci fib]
+24.2 +3.0 25 +23 +36 комфорт 1012.8 894.4
12 13.09 штиль 0 50 км 6/0
[Ac cast Ci fib]
+25.4 +4.8 27 +25 +26 комфорт 1010.8 904.6
15 13.09 штиль 0 10 км 3/0
[Ci fib]
+13.6 +10.4 81 +13 +13 1016.7 893.7 +26.0
18 13.09 штиль 0 10 км ясно +11.9 +5.5 65 +12 +12 1018.0 894.1 +26.0
21 13.09 штиль 0 10 км ясно +10.6 +4.6 66 +10 +10 1019.6 895.0
00 14.09 штиль 0 10 км 1/0
[Ci fib]
+9.9 +5.3 73 +9 +9 1020.3 907.6
03 14.09 штиль 0 50 км 1/0
[Ci fib]
+16.9 +5.5 47 +17 +21 1016.8 895.1
06 14.09 штиль 0 50 км 1/1 1000 м
[Cu hum]
+21.3 +8.6 44 +22 +37 комфорт 1014.5 894.8 +9.0
09 14.09 штиль 0 50 км 3/3 1000 м
[Cu hum]
+24.4 +6.7 32 +24 +34 комфорт 1010.8 892.7
12 14.09 штиль 0 50 км 3/3 1000 м
[Cu hum]
+23.7 +8.6 38 +24 +25 комфорт 1010.7 904.1
15 14.09 штиль 0 10 км 5/0
[Ac As]
+15.7 +5.8 52 +16 +16 1013.3 891.5 +25.8
18 14.09 штиль 0 10 км 5/0
[Ac As]
+13.3 +6.8 65 +13 +13 1014.7 891.8 +25.8
21 14.09 штиль 0 10 км 8/0
[Ac As]
+14.9 +5.6 54 +15 +15 1014.2 892.0
00 15.09 штиль 0 10 км 9/0
[Ac As]
+15.1 +8.4 64 +15 +15 1014.2 904.2
03 15.09 В 2 50 км 9/0
[Ac As]
+17.2 +9.2 59 +18 +19 1014.3 893.0
06 15.09 штиль 0 50 км 9/9 600 м
[Sc Ac As]
+18.8 +8.4 51 +19 +21 1015.5 894.7 +12.8
09 15.09 штиль 0 20 км в посл. час дождь 10/6 600 м
[Sc As op]
+15.5 +12.8 84 +15 +16 1018.1 895.7
12 15.09 штиль 0 50 км {дождь} 9/6 600 м
[Sc Ac As]
+15.0 +13.0 88 +15 +15 1018.3 908.0
15 15.09 штиль 0 2000 м слаб. дождь 10/6 600 м
[Sc As op]
+13.8 +12.3 91 +13 +13 1020.0 896.7 +19.6
18 15.09 В 2 2000 м гроза, ливневой дождь 10/8 600 м
[Cb cap As op]
+12.3 +11.3 94 +11 +11 1021.2 897.1 +19.6 2
21 15.09 штиль 0 10 км {гроза, дождь} 8/0
[Ac As]
+11.0 +9.2 89 +10 +10 1021.3 896.7
00 16.09 штиль 0 10 км {гроза, ливн. осадки} 5/0
[Ac As]
+10.1 +8.6 90 +9 +9 1021.9 909.3
03 16.09 штиль 0 50 км в посл. час дождь {ливн. осадки} 6/3 600 м
[Sc diur, vesp Ac As]
+14.5 +8.8 69 +14 +16 1021.4 898.2
06 16.09 штиль 0 50 км {снег} 3/1 600 м
[Sc diur, vesp Ac lent]
+17.6 +9.5 59 +18 +29 1017.8 896.2 3
09 16.09 штиль 0 50 км 5/3 600 м
[Sc diur, vesp Ac lent]
+20.2 +9.8 51 +21 +28 комфорт 1016.0 895.7
12 16.09 штиль 0 50 км 9/3 1000 м
[Sc diur, vesp Ac As]
+18.8 +9.8 56 +19 +20 1015.5 906.7
15 16.09 штиль 0 4000 м 4/0
[Ac As]
+15.9 +11.9 77 +16 +16 1017.1 895.0 +20.6
18 16.09 10 км 8/0
[Ac As]
+15.9 +7.3 57 1018.0 895.8 +20.6
21 16.09 штиль 0 10 км 1/0
[Ac cast]
+13.1 +7.4 68 +13 +13 1019.3 895.8
00 17.09 штиль 0 10 км 8/8 1000 м
[Cu hum]
+10.7 +8.2 85 +10 +10 1021.2 908.8
03 17.09 штиль 0 50 км 8/3 1000 м
[Cu hum Ac cast]
+15.3 +9.0 66 +15 +16 1018.7 896.1
06 17.09 штиль 0 50 км 4/4 1000 м
[Cu hum]
+19.4 +11.2 59 +20 +29 1019.2 898.2 +10.5
09 17.09 штиль 0 50 км 3/3 1000 м
[Cu hum]
+22.3 +7.0 37 +23 +32 комфорт 1018.0 898.2
12 17.09 штиль 0 50 км 1/1 1000 м
[Cu hum]
+21.5 +7.7 41 +22 +24 комфорт 1017.3 909.3
15 17.09 штиль 0 4000 м ясно +14.3 +8.8 69 +14 +14 1020.5 897.3 +22.8
03 18.09 штиль 0 50 км ясно +16.4 +6.1 50 +16 +20 1020.5 898.2

 

Местоположение метеостанции Токтогул (Таласская область, Киргизия): широта 41.83 долгота 72.87 высота над уровнем моря 1082 м.

В архиве по умолчанию представлена погода в Токтогуле за последнюю неделю. Архивные данные за месяц целиком и за предыдущие месяцы, начиная с января 2011 года, Вы можете получить, выбрав интересующий диапазон дат из раскрывающегося списка и нажав кнопку "Ввод!".


*Определитесь, кто Вы:
робот инопланетянин человек

Внимание! Время в таблицах - всемирное. Для получения местного времени необходимо прибавить поправку, которая равна 5 ч.

Смотрите также архив погоды в соседних городах и на ближайших метеорологических станциях:

Погода в Ит-Агаре (Таласская область, Киргизия) (38 км)
Погода в Чаеке (Нарынская область, Киргизия) (53 км)
Погода в Ак-Тереке (Иссык-Кульская область, Киргизия) (61 км)
Погода в Таласе (Таласская область, Киргизия) (94 км)
Погода в Сусамыре (Чуйская область, Киргизия) (98 км)
Погода в Джалал-Абаде (Джалал-Абадская область, Киргизия) (101 км)
Погода в Пача-Ате (Джалал-Абадская область, Киргизия) (103 км)
Погода в Мерке (Жамбылская область, Казахстан) (117 км)
Погода в Тео-Ашуу (Чуйская область, Киргизия) (119 км)
Погода в Узгене (Ошская область, Киргизия) (123 км)

Пояснения к столбцам:

Ветер - указаны скорость ветра в м/с - средняя за 10 мин, порывы в срок и между сроками (в фигурных скобках) и направление, откуда дует ветер: С - северный, СВ - северо-восточный, В - восточный, ЮВ - юго-восточный, Ю - южный, ЮЗ - юго-западный, З - западный, СЗ - северо-западный.
Видимость - горизонтальная дальность видимости в метрах или километрах. При видимости от 1 до 10 км при отсутствии осадков обычно наблюдается дымка, при ухудшении видимости до 1 км и менее - туман. В сухую погоду видимость может ухудшаться дымом, пылью или мглою.
Явления - указаны атмосферные явления, наблюдавшиеся в срок или в последний час перед сроком; фигурными скобками обозначены явления, наблюдавшиеся между сроками (за 1-3 часа до срока); квадратными скобками обозначены град или гололедные отложения с указанием их диаметра в мм.
Облачность - указаны через наклонную черту общая и нижняя облачность в баллах и высота нижней границы облаков в метрах; квадратными скобками обозначены формы облаков: Ci - перистые, Cs - перисто-слоистые, Cc - перисто-кучевые, Ac - высококучевые, As - высокослоистые, Sc - слоисто-кучевые, Ns - слоисто-дождевые, Cu - кучевые, Cb - кучево-дождевые. Подробнее классификацию облаков см. в Атласе облаков (PDF).
T - Температура воздуха - температура, измеренная на высоте 2 м над землей.
Td - Температура точки росы - температура, при понижении до которой содержащийся в воздухе водяной пар достигнет насыщения.
f - Относительная влажность воздуха - влажноcть воздуха, измеренная на высоте 2 м над землей.
Te - Эффективная температура - температура, которую ощущает одетый по сезону человек в тени. Характеристика душности погоды. При расчете учитывается влияние влажности воздуха и скорости ветра на теплоощущения человека.
Tes - Эффективная температура на солнце - температура, которую ощущает человек, с поправкой на солнечный нагрев. Характеристика знойности погоды. Зависит от высоты солнца над горизонтом, облачности и скорости ветра. Ночью, в пасмурную погоду, а также при ветре 12 м/с и более поправка равна нулю.
P - Атмосферное давление - приведенное к уровню моря атмосферное давление.
Po - Атмосферное давление - измеренное на уровне метеостанции атмосферное давление.
Tmin - Минимальная температура - минимум температуры воздуха на высоте 2 м над землей.
Tmax - Максимальная температура - максимум температуры воздуха на высоте 2 м над землей.
R - Количество осадков - Количество выпавших осадков за период времени, мм. При наведении курсора мыши на число - период времени, за который выпало указанное количество осадков.
R24 - Количество осадков - Количество выпавших осадков за 24 часа, мм.
S - Снежный покров - Высота снежного покрова, см. При наведении курсора мыши на число - состояние снежного покрова и степень покрытия местности в баллах.